Welcome to the New NWS' Forecast!
Most changes are behind the scenes, but click here for differences you might notice.

Regional Weather Roundup (RWR)

Issued by Gray - Portland, ME (GYX)

                            
000
ASUS41 KGYX 160210
RWRGYX
WEATHER ROUNDUP FOR MAINE AND NEW HAMPSHIRE
NATIONAL WEATHER SERVICE GRAY ME
900 PM EST THU NOV 15 2018

MEZ002-005-006-010-012-015-018-020-021-024-026-027-029-160300-
MAINE
  
CITY           SKY/WX    TMP DP  RH WIND       PRES   REMARKS
PORTLAND       CLOUDY    29  16  58 N6        30.39F                  
SANFORD        CLOUDY    27  18  69 N5        30.37F                  
BAR HARBOR     FAIR      25  14  63 N5        30.43F                  
WISCASSET      FAIR      27  14  58 CALM      30.42F                  
ROCKLAND       FAIR      29  16  58 NE3       30.40F                  
FRYEBURG       FAIR      24  14  65 CALM      30.36F                  
LEWISTONAUBURN FAIR      26  13  57 CALM      30.39F                  
AUGUSTA        FAIR      25  10  53 CALM      30.40F                  
WATERVILLE     FAIR      24   9  52 MISG      30.37F                  
BANGOR         CLOUDY    25  10  53 CALM      30.42F                  
GREENVILLE       N/A     16   8  71 SE6       30.29F                  
MILLINOCKET    FAIR      17  13  84 CALM      30.41R                  
HOULTON        FAIR      13  12  96 CALM      30.38F                  
PRESQUE ISLE   FAIR      10   6  84 CALM      30.38F                  
FRENCHVILLE    FAIR      18   5  57 S3        30.33F                  
CARIBOU        FAIR      14   6  70 CALM      30.36F                  
$$

NHZ002-005-008-009-011-012-014-160300-
NEW HAMPSHIRE
  
CITY           SKY/WX    TMP DP  RH WIND       PRES   REMARKS
PORTSMOUTH     CLOUDY    30  17  59 N7        30.33F                  
ROCHESTER      CLOUDY    27  15  61 N6        30.35F                  
NASHUA         LGT SNOW  25  23  92 N3        30.34F VSB 3/4          
MANCHESTER     LGT SNOW  28  19  69 N7        30.32F                  
CONCORD        CLOUDY    27  10  49 NE6       30.33F                  
LACONIA        CLOUDY    27   6  41 E6        30.34F                  
PLYMOUTH       CLOUDY    25  16  67 CALM      30.34F                  
BERLIN         FAIR      19  13  77 CALM      30.30F                  
WHITEFIELD     FAIR      19  12  74 CALM      30.29F                  
JAFFREY        LGT SNOW  23  21  92 VRB3      30.26F VSB 3/4          
KEENE          LGT SNOW  25  21  86 NE8       30.27F FOG              
LEBANON        CLOUDY    25  13  60 CALM      30.30F                  
MT WASHINGTON  MOCLDY    14 -24  17 S16         N/A  WCI  -2          
$$

VTZ005-007-008-160300-
VERMONT
  
CITY           SKY/WX    TMP DP  RH WIND       PRES   REMARKS
ST JOHNSBURY     N/A     19  14  81 MISG      30.30F                  
MONTPELIER     FAIR      19  15  84 E5        30.30F                  
BURLINGTON     CLOUDY    26  14  60 E6        30.25F                  
$$

MAZ007-012-024-CTZ003-RIZ002-NYZ038-NYZ072-160300-
SOUTHERN NEW ENGLAND AND NY
  
CITY           SKY/WX    TMP DP  RH WIND       PRES   REMARKS
BOSTON         LGT SNOW  34  32  92 SE13      30.32F VSB 1            
WORCESTER      LGT SNOW  22  21  96 NE10      30.22F VSB 3/4 WCI  11  
NANTUCKET      RAIN      37  31  78 E21G28    30.25F                  
PROVIDENCE     SNOW      31  31 100 NE9       30.28F VSB 1/2          
HARTFORD       HVY SNOW  26  25  96 N10       30.22F VSB 1/4 WCI  16  
ALBANY         LGT SNOW  25  21  85 N6        30.22F VSB 1            
NEW YORK CITY  LGT RAIN  36  35  96 NE24G33   30.04F FOG              
$$

ANZ081-ANZ082-ANZ150-NHZ014-MEZ023>029-160300-
COASTAL MARINE OBSERVATIONS
  
STATION/POSITION TIME  TEMP    WIND        PRES    WAVE
                       AIR SEA DIR/SP/G            HT/PER
                 (UTC) (F)     (DEG/KT/KT) (MB)    (FT/S)
MOUNT DESERT ROC 0200   33      70/  5/  6 1029.7F
MATINICUS ROCK   0100   33      90/  6/  8 1029.5F
ISLE OF SHOALS   0100   35      90/ 13/ 16 1028.1F
CASHES LEDGE BUO 0150   35 49              1029.0F   2/ 6
$$

.............KEY..............
   WCI - WIND CHILL
   TC  - TEMPERATURE IN CELSIUS
   VSB - VISIBILITY IN MILES
   HX  - HEAT INDEX
   FAIR- INDICATES FEW OR NO CLOUDS BELOW 12,000 FT, WITH NO 
         SIGNIFICANT WEATHER AND/OR OBSTRUCTIONS TO VISIBILITY.